Weather History for Ely, NV

Change the Weather History Date:

Monday, October 24, 2011

  Actual Average Record
Temperature  
Mean Temperature 51 °F 43 °F  
Max Temperature 68 °F 59 °F 80 °F (1959)
Min Temperature 33 °F 26 °F 8 °F (1975)
Degree Days  
Heating Degree Days 14 22  
Month to date heating degree days 369 444  
Since 1 July heating degree days 507 760  
Cooling Degree Days 0 0  
Month to date cooling degree days 0 0  
Year to date cooling degree days 259 218  
Moisture  
Dew Point 24 °F    
Average Humidity 43    
Maximum Humidity 69    
Minimum Humidity 16    
Precipitation  
Precipitation 0.00 in 0.03 in 0.46 in (2004)
Month to date precipitation 1.14 0.77  
Year to date precipitation 11.40 8.24  
Snow  
Snow 0.00 in 0.10 in 5.30 in (1954)
Month to date snowfall 2.6 2.1  
Since 1 July snowfall 2.6 2.5  
Since 1 September snowfall 2.6 2.5  
Snow Depth 0.00 in    
Sea Level Pressure  
Sea Level Pressure 29.95 in    
Wind  
Wind Speed 8 mph (South)    
Max Wind Speed 20 mph    
Max Gust Speed 29 mph    
Visibility 10 miles    
Events      
T = Trace of Precipitation, MM = Missing Value Source: NWS Daily Summary

Daily Weather History Graph

Daily Weather History Graph

Search for Another Location

Airport:

Trip Planner

Search our weather history database for the weather conditions in past years. The results will help you decide how hot, cold, wet, or windy it might be!

Date:

Astronomy

Oct. 24, 2011 Rise Set
Actual Time 6:58 AM PDT 5:48 PM PDT
Civil Twilight 6:30 AM PDT 6:15 PM PDT
Nautical Twilight 5:59 AM PDT 6:46 PM PDT
Astronomical Twilight 5:28 AM PDT 7:17 PM PDT
Moon 4:22 AM PDT (10/24) 4:15 PM PDT (10/24)
Length of Visible Light 11h 44m
Length of Day
10h 49m
Waning Crescent, 6% of the Moon is Illuminated
Oct 24
Waning Crescent
Oct 26
New
Nov 2
First Quarter
Nov 10
Full
Nov 18
Last Quarter

Hourly Weather History & Observations

Time (PDT) Temp. Windchill Dew Point Humidity Pressure Visibility Wind Dir Wind Speed Gust Speed Precip Events Conditions
12:53 AM 37.9 °F 30.5 °F 25.0 °F 60% 29.99 in 10.0 mi South 11.5 mph - N/A   Clear
1:53 AM 37.0 °F 34.5 °F 25.0 °F 62% 29.99 in 10.0 mi NNE 3.5 mph - N/A   Clear
2:53 AM 36.0 °F 27.5 °F 25.0 °F 64% 29.97 in 10.0 mi SSE 12.7 mph - N/A   Clear
3:53 AM 36.0 °F 31.1 °F 24.1 °F 62% 29.96 in 10.0 mi South 5.8 mph - N/A   Clear
4:53 AM 36.0 °F 31.1 °F 25.0 °F 64% 29.97 in 10.0 mi SE 5.8 mph - N/A   Clear
6:53 AM 33.1 °F 26.1 °F 24.1 °F 70% 30.06 in 10.0 mi South 8.1 mph - N/A   Clear
7:53 AM 35.1 °F 29.3 °F 25.0 °F 67% 30.07 in 10.0 mi SSE 6.9 mph - N/A   Clear
8:53 AM 48.9 °F - 27.0 °F 43% 30.03 in 10.0 mi SSE 6.9 mph - N/A   Clear
9:53 AM 57.9 °F - 26.1 °F 30% 30.00 in 10.0 mi SSW 5.8 mph - N/A   Clear
10:53 AM 63.0 °F - 24.1 °F 23% 29.97 in 10.0 mi ESE 4.6 mph - N/A   Clear
11:53 AM 66.9 °F - 19.9 °F 17% 29.92 in 10.0 mi SW 6.9 mph - N/A   Clear
12:53 PM 66.0 °F - 21.0 °F 18% 29.91 in 10.0 mi WSW 12.7 mph 17.3 mph N/A   Clear
1:53 PM 66.0 °F - 21.9 °F 19% 29.89 in 10.0 mi SSW 12.7 mph - N/A   Clear
2:53 PM 66.9 °F - 21.9 °F 18% 29.88 in 10.0 mi SSW 13.8 mph 19.6 mph N/A   Clear
3:53 PM 66.9 °F - 21.0 °F 17% 29.87 in 10.0 mi SSW 11.5 mph 28.8 mph N/A   Mostly Cloudy
4:53 PM 63.0 °F - 21.9 °F 21% 29.88 in 10.0 mi SW 12.7 mph - N/A   Scattered Clouds
5:53 PM 57.0 °F - 24.1 °F 28% 29.91 in 10.0 mi SSW 4.6 mph - N/A   Overcast
6:53 PM 53.1 °F - 25.0 °F 34% 29.96 in 10.0 mi South 5.8 mph - N/A   Overcast
7:53 PM 52.0 °F - 21.9 °F 31% 29.98 in 10.0 mi West 4.6 mph - N/A   Mostly Cloudy
8:53 PM 48.0 °F - 21.0 °F 34% 29.94 in 10.0 mi WNW 5.8 mph - N/A   Clear
9:53 PM 43.0 °F 37.7 °F 24.1 °F 47% 29.93 in 10.0 mi SSE 9.2 mph - N/A   Mostly Cloudy
10:53 PM 39.0 °F 34.8 °F 24.1 °F 55% 29.93 in 10.0 mi SSE 5.8 mph - N/A   Mostly Cloudy
11:53 PM 42.1 °F 37.7 °F 23.0 °F 47% 29.91 in 10.0 mi South 6.9 mph - N/A   Mostly Cloudy